Temperature
12 12 12 12 12 12 12 13 13 13 13 13 13 13 14 14 14 14 14 14 14 14 14 14 14 14 14 14 15 15 15 15 15 14 14 14 15 14 14 14 14 14 15
12 12 12 12 12 12 12 12 13 13 13 13 13 13 13 14 14 14 14 14 14 14 14 14 14 14 14 14 14 14 15 15 15 14 14 14 14 14 14 14 14 14 14
12 12 12 12 12 12 12 12 12 13 13 13 13 13 13 13 13 14 14 14 14 14 14 14 14 14 14 14 14 14 14 14 14 14 14 13 14 14 14 14 14 14 14
11 11 11 12 11 12 12 12 12 12 13 13 13 13 13 13 13 13 13 13 13 14 14 14 14 14 14 14 14 14 14 14 14 14 13 13 13 14 14 14 14 14 14
11 11 11 11 11 11 12 12 12 12 12 12 12 12 12 12 13 13 13 13 13 13 13 14 14 14 14 14 14 14 14 14 14 13 13 13 13 13 14 13 14 14 14
10 11 11 11 11 11 11 12 12 12 12 12 12 12 12 12 12 13 13 13 13 13 13 13 13 13 13 13 13 13 14 14 13 13 13 13 13 13 13 13 13 13 13
10 10 10 11 11 11 11 12 12 12 12 12 12 12 12 12 12 12 12 12 12 13 13 13 13 13 13 13 13 13 13 13 13 12 12 12 13 13 13 13 13 13 13
10 10 10 10 10 11 11 11 11 11 12 12 12 12 12 12 12 12 12 12 12 12 12 12 13 13 13 13 13 13 13 13 12 12 12 12 12 13 13 13 13 13 13
9 10 10 10 10 10 11 11 11 11 11 11 11 12 12 12 12 12 12 12 12 12 12 12 12 12 12 12 12 12 12 12 12 12 12 12 12 12 12 13 13 13 13
9 9 10 10 10 10 10 10 10 11 11 11 11 11 11 11 11 11 11 11 11 12 12 12 12 12 12 12 12 12 12 12 12 12 12 12 12 12 12 12 12 12 12
9 9 9 9 9 9 9 10 10 10 10 10 11 11 11 11 11 11 11 11 11 11 11 11 11 11 11 12 12 12 12 11 11 11 11 11 12 12 12 12 12 12 12
9 9 9 9 9 9 9 9 10 10 10 10 10 10 10 10 10 10 11 11 11 11 11 11 11 11 11 11 11 11 11 11 11 11 11 11 11 11 11 11 12 12 12
8 8 8 8 8 9 9 9 9 9 10 10 10 10 10 10 10 10 10 10 10 10 11 11 11 11 11 11 11 11 11 11 11 11 11 11 11 11 11 11 11 11 11
8 8 8 8 8 8 8 9 9 9 9 9 9 9 9 10 10 10 10 10 10 10 10 10 10 10 10 10 10 10 10 10 10 10 10 10 10 10 11 11 11 11 11
7 7 7 8 8 8 8 8 8 8 9 9 9 9 9 9 9 9 9 9 9 9 9 10 10 10 10 10 10 10 10 10 10 10 10 10 10 10 10 10 10 10 10
7 7 7 7 7 7 7 7 8 8 8 8 8 8 8 8 9 9 9 9 9 9 9 9 9 9 9 9 9 9 9 9 9 9 9 10 10 10 10 10 10 10 10
6 6 6 6 7 7 7 7 7 7 7 7 8 8 8 8 8 8 8 8 8 8 8 8 8 8 9 9 9 9 9 9 9 9 9 9 9 9 10 10 10 10 9
6 6 6 6 6 6 6 6 6 7 7 7 7 7 7 7 7 7 8 8 8 8 8 8 8 8 8 8 8 8 8 8 8 8 8 8 9 9 9 9 9 9 9
6 6 6 6 6 6 6 6 6 6 6 6 6 6 6 7 7 7 7 7 7 7 7 7 7 7 7 7 8 8 8 8 8 8 8 8 8 8 8 9 9 9 9
5 5 5 5 5 5 5 5 5 5 5 5 6 6 6 6 6 6 6 6 6 6 6 6 6 7 7 7 7 7 8 8 8 8 8 8 8 8 8 8 8 8 8
5 5 5 5 5 5 5 5 5 5 5 5 5 5 5 5 5 5 5 6 6 6 6 6 6 6 6 6 6 6 7 7 7 7 7 7 7 7 7 7 7 8 8
5 5 5 4 4 4 4 4 4 4 4 4 4 5 5 4 5 5 5 5 5 5 5 5 5 5 5 5 5 5 6 6 6 7 7 7 7 7 7 7 7 7 7
4 4 4 4 4 4 4 3 4 4 4 4 4 4 4 4 4 4 4 4 4 4 4 4 5 5 4 5 5 5 5 6 5 6 6 6 7 7 7 7 7 7 7
4 4 4 4 3 3 3 3 3 3 3 3 3 3 4 4 4 4 4 4 4 4 4 4 4 4 4 4 4 4 4 4 4 5 5 6 6 6 6 6 6 6 6
3 3 3 3 3 3 3 3 3 3 3 2 3 3 3 3 3 3 3 3 3 3 3 3 3 3 3 3 3 3 4 4 4 4 4 5 5 5 5 5 6 6 6
2 2 3 3 3 3 2 2 2 2 2 2 2 2 2 2 2 2 2 2 2 2 3 3 3 3 3 3 3 3 3 3 3 3 3 3 4 4 5 5 5 5 5
Wind_Speed
1 3 5 5 5 6 7 8 8 9 9 9 8 9 9 9 9 9 10 10 10 11 12 12 13 13 13 14 14 14 14 14 14 14 14 14 14 14 13 12 11 13 14
1 1 4 5 6 8 8 8 9 9 9 8 9 9 9 9 10 10 10 10 10 11 11 12 12 12 13 13 14 14 14 13 13 12 11 13 13 13 13 13 12 13 14
3 3 4 6 8 9 10 10 10 10 10 8 8 8 9 9 9 10 10 10 10 10 11 11 12 12 12 12 12 13 13 13 12 9 7 10 12 13 13 13 13 13 13
4 4 4 6 7 9 10 10 10 10 10 10 9 9 9 9 9 10 10 9 9 10 10 11 11 11 12 12 12 12 12 11 10 6 7 9 10 12 12 12 12 13 13
4 4 5 6 7 8 9 10 10 10 10 10 10 10 10 9 9 9 9 9 9 10 10 10 10 11 11 11 11 11 11 10 7 6 8 9 9 11 11 11 11 12 12
4 5 6 7 8 8 8 9 9 9 9 9 10 10 10 9 10 9 9 9 9 9 9 10 10 10 9 9 10 10 9 7 5 7 8 8 9 10 10 11 11 11 12
4 4 5 6 7 7 7 8 8 9 9 9 9 9 9 9 9 9 8 8 9 9 8 9 9 9 9 9 9 9 8 6 5 6 7 7 9 9 9 9 10 10 11
4 4 5 6 6 6 6 6 7 8 8 8 9 8 9 9 9 9 8 8 8 8 8 8 8 8 8 9 9 8 7 5 5 6 6 7 8 7 8 8 8 9 10
4 3 3 4 4 5 6 6 6 7 7 7 8 8 8 8 8 8 8 8 8 7 7 7 7 8 8 8 8 8 6 4 4 5 5 6 6 6 7 7 7 8 8
3 3 2 3 3 3 3 5 6 6 7 7 8 8 7 7 7 7 8 7 7 6 6 7 7 7 7 7 7 7 5 3 4 4 4 5 5 5 5 6 6 7 7
2 2 1 2 2 2 2 3 4 5 6 6 6 7 5 4 4 5 6 7 6 6 5 6 6 6 6 6 6 5 3 2 3 3 4 5 4 4 5 5 5 6 6
2 2 1 1 1 1 1 1 1 2 3 3 3 4 3 3 3 3 4 6 5 5 5 5 5 5 3 3 3 2 2 2 2 3 4 5 4 4 4 4 4 5 5
4 3 1 1 1 0 0 1 1 1 1 2 2 2 2 2 2 2 2 3 3 2 3 3 3 2 2 2 2 2 2 1 1 2 4 4 3 3 3 4 3 3 4
4 3 2 2 1 1 1 1 1 1 0 1 1 1 1 1 1 1 1 2 1 1 1 1 1 1 1 1 1 1 1 1 1 1 3 4 3 2 2 2 3 3 3
4 3 3 2 2 2 2 1 1 1 1 1 1 0 0 1 1 1 1 1 1 1 1 1 1 1 1 0 0 0 1 1 0 0 1 3 3 2 1 1 2 2 2
4 4 3 3 3 3 2 2 2 2 2 2 1 1 1 1 1 1 1 1 1 1 1 1 1 0 0 1 1 1 1 1 1 1 1 0 2 2 2 2 1 1 1
5 4 3 3 3 3 3 3 2 2 2 2 2 2 2 2 2 2 2 2 1 1 1 1 1 1 1 1 2 2 2 2 2 2 2 2 1 0 1 2 2 1 1
4 4 4 3 3 3 3 3 2 2 2 2 3 3 3 2 2 2 2 2 1 1 1 1 1 1 1 1 2 2 2 2 3 3 3 2 2 2 1 1 2 2 2
4 4 4 3 3 3 3 2 2 2 2 2 2 2 3 3 3 3 2 2 2 1 1 2 2 2 2 2 2 3 3 3 3 3 3 3 3 3 3 2 1 1 2
4 4 4 3 3 2 2 2 1 2 2 2 2 2 3 3 4 3 3 3 3 2 2 2 2 2 2 3 3 3 3 4 3 4 4 3 3 4 4 3 3 2 1
3 3 3 3 3 2 2 2 2 2 2 2 2 3 3 3 4 4 4 3 3 3 3 3 3 3 2 2 2 3 3 4 4 3 3 3 3 4 4 3 3 2 3
4 4 4 4 4 4 3 3 2 3 2 2 2 3 3 4 4 4 4 4 4 4 4 4 3 3 3 2 2 2 3 3 3 3 3 4 4 4 4 4 4 3 3
4 4 4 4 4 4 3 2 2 1 2 2 3 3 4 4 5 5 5 4 5 4 4 5 4 5 4 4 3 3 3 3 2 3 4 4 4 4 4 4 5 5 5
4 4 4 4 4 4 4 4 4 3 3 4 3 3 3 4 5 5 5 5 5 5 5 5 6 5 6 5 4 5 5 3 3 3 4 4 4 5 5 5 5 6 6
3 3 3 3 3 3 4 4 4 4 4 3 3 3 3 3 4 5 5 5 5 5 5 6 6 6 6 6 6 5 5 5 6 4 5 5 5 5 5 6 6 6 7
2 2 3 3 3 3 3 4 5 5 5 4 4 4 3 3 4 5 5 6 6 6 6 6 6 7 7 8 7 7 6 6 6 6 6 6 6 6 6 6 7 6 7
Wind_Direction
94 355 356 9 43 51 51 54 55 57 60 66 68 70 73 76 78 76 77 77 77 75 73 72 72 72 72 72 72 72 70 69 69 71 70 69 67 68 70 67 72 78 77
113 47 27 30 54 55 56 55 54 55 58 64 65 65 69 74 76 75 75 77 78 76 74 73 72 70 72 73 72 71 70 71 71 71 74 76 69 66 68 65 61 75 76
99 83 64 51 58 58 57 56 55 54 55 61 62 63 66 71 74 74 74 75 76 76 75 74 73 70 72 73 74 73 71 70 70 69 77 78 74 68 69 71 73 77 78
103 94 80 67 64 60 59 57 55 55 54 57 58 61 63 66 70 72 73 73 73 76 77 77 74 73 73 74 76 75 73 70 64 63 74 72 73 69 68 71 73 76 77
107 99 90 80 71 63 60 58 56 53 53 57 56 56 58 60 65 67 68 70 72 75 77 79 76 74 72 72 75 76 73 69 63 64 74 73 71 68 67 69 72 75 76
114 100 98 84 77 68 62 59 56 53 52 55 56 55 54 55 59 63 65 68 73 76 78 81 79 76 72 72 74 75 72 65 75 71 72 75 74 70 70 70 73 77 77
119 98 99 86 82 75 66 61 58 55 53 55 57 56 54 53 54 59 63 66 72 76 78 79 80 80 75 72 72 74 69 55 65 77 74 73 71 70 74 72 73 77 80
120 105 98 83 76 75 72 64 60 57 55 56 56 57 55 53 53 52 60 66 71 74 76 79 81 80 77 72 69 71 64 55 74 75 75 73 69 71 76 77 75 78 79
117 107 93 86 81 75 72 68 61 57 54 56 56 54 54 53 52 50 54 62 67 72 75 78 80 79 75 72 68 67 62 48 70 74 73 70 68 73 78 79 79 82 82
119 109 96 89 84 90 89 75 66 62 58 58 57 55 54 56 55 52 51 54 60 69 77 81 80 78 76 71 65 62 62 70 70 75 73 67 64 72 80 82 82 85 85
133 120 107 91 82 76 95 88 82 73 64 64 61 57 57 61 59 56 49 48 52 62 76 84 83 82 82 78 66 58 71 68 67 61 58 56 63 71 73 83 87 87 87
182 176 151 125 101 86 93 127 113 91 79 65 58 53 52 57 51 46 56 52 50 62 75 83 87 92 87 84 77 72 77 66 72 64 48 42 60 70 69 73 92 97 96
194 188 193 191 178 162 196 180 149 124 95 69 56 42 36 57 54 40 47 57 50 69 77 84 99 82 70 60 60 45 33 52 61 59 47 37 55 73 72 68 78 102 108
199 203 205 212 212 220 233 226 211 176 141 85 57 33 32 41 41 26 22 22 22 34 49 70 66 66 59 62 68 46 30 21 30 34 39 33 38 65 79 74 68 83 97
207 216 222 218 218 220 221 236 235 228 211 207 219 221 304 9 341 354 352 353 349 348 0 13 64 57 31 358 6 358 9 344 312 352 39 38 24 31 77 92 79 72 96
221 228 228 229 227 226 227 228 231 236 229 218 219 232 238 254 294 303 311 310 325 329 322 307 274 237 304 308 305 303 295 296 276 270 274 72 51 34 36 55 43 31 98
227 232 231 230 233 233 234 232 234 237 234 230 226 231 234 243 260 268 272 271 290 290 303 292 274 251 267 281 270 273 279 279 266 261 250 239 216 118 26 10 4 345 337
228 229 231 230 229 237 246 247 244 243 239 239 231 230 234 240 248 250 257 260 269 273 282 273 270 258 247 266 274 273 270 270 263 257 245 235 227 230 232 317 347 331 321
228 224 225 221 224 229 237 241 242 245 250 256 249 245 241 236 237 238 242 240 233 252 262 264 252 263 259 263 272 274 264 254 254 248 238 231 227 232 236 222 240 298 298
225 222 222 215 221 224 219 223 234 244 248 257 251 246 242 240 238 236 236 227 220 228 241 255 254 253 262 259 260 266 263 251 245 242 239 234 231 231 234 232 225 219 246
217 214 217 217 212 200 204 222 233 245 245 247 250 251 247 244 245 243 244 226 222 229 239 248 255 245 258 263 252 261 254 238 237 236 237 242 235 233 233 235 233 241 243
217 215 213 217 212 207 214 225 238 241 245 245 251 253 250 248 247 247 250 239 229 231 236 236 247 247 250 246 249 249 249 232 221 231 234 240 243 237 235 234 234 244 257
222 222 218 217 214 211 212 209 208 227 247 247 251 256 256 250 245 240 242 246 238 230 233 232 232 243 240 240 241 239 240 244 264 227 234 234 238 236 237 239 242 248 254
232 228 224 217 212 209 205 210 213 223 235 249 251 249 255 249 248 240 240 244 245 237 234 235 232 241 237 237 236 241 250 260 247 249 231 234 243 246 243 245 250 248 253
237 229 222 214 213 210 208 218 225 236 247 254 256 251 257 258 252 249 246 247 247 244 240 239 237 238 235 235 236 238 243 245 241 245 257 253 250 247 252 252 248 248 250
240 226 218 208 218 217 214 223 228 237 245 251 256 259 260 262 258 253 250 249 250 249 244 241 240 240 240 237 237 236 237 236 233 236 250 259 264 263 262 257 250 245 245
Height
1536 1537 1537 1538 1539 1540 1540 1540 1540 1540 1540 1540 1540 1540 1540 1540 1540 1540 1539 1539 1539 1539 1538 1538 1538 1538 1537 1537 1537 1536 1536 1536 1536 1536 1536 1535 1535 1535 1535 1534 1535 1534 1534
1535 1536 1537 1538 1539 1540 1540 1540 1540 1540 1540 1540 1540 1540 1540 1540 1540 1540 1540 1540 1540 1539 1539 1539 1539 1539 1538 1538 1538 1538 1537 1537 1537 1537 1537 1537 1537 1536 1536 1536 1536 1536 1535
1535 1536 1537 1538 1539 1539 1540 1540 1540 1540 1540 1540 1540 1541 1541 1541 1540 1540 1540 1540 1540 1540 1539 1539 1539 1539 1539 1539 1539 1539 1538 1538 1538 1538 1539 1539 1538 1538 1538 1538 1537 1537 1537
1534 1536 1537 1538 1538 1539 1539 1540 1540 1540 1540 1540 1540 1541 1541 1541 1541 1540 1540 1540 1540 1540 1540 1540 1540 1540 1540 1540 1540 1539 1539 1539 1539 1540 1540 1540 1540 1539 1539 1539 1539 1539 1539
1534 1535 1536 1537 1538 1538 1539 1539 1539 1540 1540 1540 1540 1540 1540 1541 1540 1541 1540 1540 1540 1540 1540 1540 1540 1540 1540 1540 1540 1540 1540 1540 1540 1541 1541 1541 1541 1540 1540 1540 1540 1540 1540
1534 1535 1536 1537 1537 1538 1538 1538 1539 1539 1540 1540 1540 1540 1540 1540 1540 1540 1540 1541 1541 1540 1540 1540 1540 1540 1540 1541 1541 1541 1541 1541 1541 1542 1542 1542 1542 1541 1541 1541 1541 1541 1541
1534 1534 1535 1536 1537 1537 1538 1538 1538 1539 1539 1539 1539 1540 1540 1540 1540 1540 1540 1540 1540 1540 1540 1540 1540 1540 1540 1541 1541 1541 1541 1541 1542 1542 1542 1542 1542 1542 1542 1542 1542 1542 1542
1533 1534 1535 1535 1536 1536 1537 1537 1538 1538 1538 1538 1539 1539 1539 1539 1539 1540 1540 1540 1540 1540 1540 1540 1540 1540 1540 1541 1541 1541 1541 1542 1542 1543 1543 1543 1542 1542 1542 1542 1543 1543 1543
1532 1533 1534 1534 1535 1536 1536 1537 1537 1537 1537 1538 1538 1538 1538 1539 1539 1539 1540 1540 1539 1539 1540 1540 1540 1540 1540 1540 1541 1541 1541 1542 1543 1543 1543 1543 1542 1543 1543 1543 1543 1543 1543
1531 1531 1532 1533 1534 1534 1535 1536 1536 1536 1536 1536 1537 1537 1537 1538 1538 1539 1539 1539 1539 1539 1539 1539 1539 1540 1540 1540 1540 1541 1541 1542 1543 1542 1543 1542 1542 1542 1542 1543 1543 1543 1543
1529 1530 1531 1532 1532 1533 1534 1534 1535 1535 1535 1535 1536 1536 1536 1537 1537 1538 1538 1538 1538 1539 1539 1539 1539 1539 1540 1540 1540 1540 1541 1541 1542 1542 1542 1542 1542 1542 1542 1542 1543 1543 1543
1527 1528 1529 1530 1530 1531 1532 1532 1533 1534 1534 1534 1534 1535 1535 1535 1536 1536 1537 1537 1537 1538 1538 1538 1538 1538 1539 1539 1539 1540 1540 1540 1541 1541 1541 1541 1542 1542 1542 1542 1542 1542 1543
1525 1526 1527 1528 1529 1529 1530 1531 1531 1532 1532 1533 1533 1533 1533 1534 1534 1535 1535 1536 1536 1536 1537 1537 1537 1537 1537 1538 1538 1538 1539 1539 1540 1540 1540 1540 1541 1541 1541 1541 1542 1542 1542
1523 1523 1525 1526 1526 1527 1528 1529 1529 1530 1530 1531 1531 1531 1532 1532 1532 1533 1533 1534 1534 1535 1535 1535 1535 1536 1536 1536 1537 1537 1537 1538 1538 1539 1539 1539 1540 1540 1540 1540 1540 1541 1541
1520 1521 1522 1523 1524 1525 1526 1526 1527 1527 1528 1528 1529 1529 1530 1530 1530 1531 1531 1532 1532 1533 1533 1533 1534 1534 1535 1535 1535 1536 1536 1536 1536 1537 1537 1538 1538 1539 1539 1539 1539 1539 1540
1517 1518 1519 1520 1521 1522 1523 1524 1524 1525 1525 1526 1526 1527 1527 1528 1528 1528 1529 1529 1530 1531 1531 1531 1532 1532 1533 1533 1533 1534 1534 1534 1535 1535 1535 1536 1536 1537 1537 1537 1537 1538 1538
1515 1516 1517 1518 1519 1519 1520 1521 1522 1522 1523 1523 1524 1524 1525 1525 1525 1526 1526 1527 1527 1528 1528 1529 1530 1530 1531 1531 1531 1532 1532 1532 1533 1533 1533 1533 1534 1534 1535 1535 1535 1535 1536
1512 1513 1514 1515 1515 1516 1517 1518 1519 1519 1520 1520 1521 1521 1522 1522 1523 1523 1523 1524 1524 1525 1526 1526 1527 1527 1528 1528 1529 1529 1530 1530 1530 1531 1531 1531 1531 1532 1532 1533 1533 1533 1534
1509 1510 1511 1511 1512 1513 1514 1515 1515 1516 1516 1517 1517 1518 1518 1519 1519 1520 1521 1521 1522 1522 1523 1524 1524 1525 1525 1525 1526 1526 1527 1527 1527 1528 1528 1528 1528 1529 1529 1530 1530 1531 1531
1506 1507 1508 1508 1509 1510 1511 1511 1512 1513 1513 1514 1514 1515 1515 1516 1516 1517 1517 1518 1518 1519 1520 1520 1521 1522 1522 1523 1523 1523 1523 1524 1524 1524 1525 1525 1525 1526 1526 1527 1527 1528 1528
1503 1504 1504 1505 1505 1506 1507 1507 1508 1508 1509 1510 1510 1511 1512 1512 1513 1513 1514 1514 1514 1515 1516 1517 1517 1518 1519 1519 1520 1520 1520 1520 1520 1521 1522 1522 1522 1523 1523 1524 1524 1525 1525
1499 1500 1501 1501 1502 1503 1503 1504 1505 1506 1506 1507 1507 1507 1508 1508 1509 1509 1510 1510 1510 1511 1512 1513 1513 1514 1515 1516 1517 1517 1518 1518 1517 1517 1518 1518 1519 1520 1520 1521 1521 1522 1522
1496 1496 1497 1498 1499 1500 1500 1501 1502 1502 1503 1503 1503 1503 1504 1504 1505 1505 1506 1506 1507 1507 1508 1509 1509 1510 1511 1512 1513 1515 1515 1514 1514 1514 1514 1515 1515 1516 1516 1517 1517 1518 1518
1493 1494 1494 1495 1496 1497 1497 1498 1498 1498 1498 1499 1499 1499 1500 1500 1501 1501 1502 1502 1503 1503 1503 1504 1505 1506 1507 1508 1509 1510 1512 1511 1512 1511 1511 1511 1511 1512 1512 1512 1513 1514 1514
1490 1491 1491 1492 1493 1494 1494 1495 1495 1495 1495 1495 1495 1495 1495 1496 1496 1497 1497 1498 1498 1498 1498 1499 1500 1501 1502 1503 1504 1505 1506 1507 1507 1507 1507 1507 1507 1507 1507 1508 1508 1509 1509
1487 1488 1488 1489 1490 1490 1491 1491 1492 1492 1492 1491 1491 1491 1491 1491 1492 1492 1492 1493 1493 1493 1494 1494 1495 1496 1497 1498 1499 1500 1501 1502 1503 1503 1503 1502 1502 1502 1502 1502 1503 1503 1504